User: anonymous   Login
Location: Maiden
(35.5760°N, 81.2120°W)
Time: 22:44:32
(UTC-04:00)
Language:

Cosmos 2151 - Orbit

View from above orbital plane
View from above orbital plane
View from above satellite
View from above satellite

Ground track
Ground track

The orbit data is extracted from the following two-line orbital elements,

1 21422U 91042A   16237.18401386  .00000273  00000-0  24581-4 0  9993
2 21422  82.5030 169.0496 0013541 200.2918 159.7765 14.91677317364225
Epoch (UTC): 24 August 2016 04:24:58
Eccentricity: 0.0013541
inclination: 82.5030°
perigee height: 583 km
apogee height: 602 km
right ascension of ascending node: 169.0496°
argument of perigee: 200.2918°
revolutions per day: 14.91677317
mean anomaly at epoch: 159.7765°
orbit number at epoch: 36422

The dashed part of the orbit path shows where the satellite is in the earth's shadow,  

DLR